FW4685 Weather Reports


Display with metric or nautical units.
time (UTC)temp
F
wind
direction
speed
MPH
gust
MPH
rain 1hr
in
rain 24hr
in
rain mn
in
humidity
%
barometer
mb
20260902163026 67 146 2.0 12.0 0.00 0.07 0.07 81 1019.2
20260902162143 68 155 1.0 7.0 0.00 0.07 0.07 79 1019.1
20260902161015 68 168 2.0 10.0 0.00 0.07 0.07 78 1019.3
20260902160026 69 204 1.0 7.0 0.00 0.07 0.07 77 1019.3
20260902155018 69 178 3.0 12.0 0.00 0.07 0.07 76 1019.3
20260902154030 69 259 1.0 7.0 0.00 0.07 0.07 75 1019.5
20260902153027 69 159 1.0 5.0 0.00 0.07 0.07 75 1019.6
20260902152022 69 221 2.0 7.0 0.00 0.07 0.07 76 1019.7
20260902151026 69 211 3.0 17.0 0.00 0.07 0.07 71 1019.6
20260902150019 69 175 2.0 10.0 0.00 0.07 0.07 69 1019.8
20260902145031 70 127 1.0 7.0 0.00 0.07 0.07 70 1019.8
20260902144027 70 190 1.0 5.0 0.00 0.07 0.07 70 1020.0
20260902143022 70 165 3.0 10.0 0.00 0.07 0.07 68 1020.0
20260902142021 70 214 2.0 7.0 0.00 0.07 0.07 67 1020.0
20260902141030 70 188 1.0 5.0 0.00 0.07 0.07 67 1020.2
20260902140027 69 176 2.0 10.0 0.00 0.07 0.07 67 1020.0
20260902135019 69 171 1.0 7.0 0.00 0.07 0.07 66 1020.1
20260902134050 69 213 2.0 10.0 0.00 0.07 0.07 65 1020.3
20260902133026 69 210 3.0 10.0 0.00 0.07 0.07 67 1020.2
20260902132041 69 151 3.0 12.0 0.00 0.07 0.07 67 1020.3
20260902131030 69 181 1.0 7.0 0.00 0.07 0.07 67 1020.4
20260902130026 69 193 2.0 12.0 0.00 0.07 0.07 68 1020.6
20260902125018 69 345 1.0 5.0 0.00 0.07 0.07 69 1020.6
20260902124030 69 248 2.0 12.0 0.00 0.07 0.07 70 1020.6
20260902123026 69 159 1.0 15.0 0.00 0.07 0.07 71 1020.7
20260902122020 68 130 1.0 5.0 0.00 0.07 0.07 72 1020.7
20260902121035 68 174 1.0 7.0 0.00 0.07 0.07 73 1020.8
20260902120045 67 188 1.0 5.0 0.00 0.07 0.07 74 1020.9
20260902115020 67 210 1.0 5.0 0.00 0.07 0.07 77 1020.9
20260902114032 67 179 1.0 7.0 0.00 0.07 0.07 79 1021.2
20260902113026 67 199 1.0 5.0 0.01 0.07 0.07 83 1021.1
20260902112020 66 189 0.0 5.0 0.01 0.07 0.07 87 1021.2
20260902111049 66 120 0.0 2.0 0.06 0.07 0.07 88 1021.3
20260902110048 65 122 0.0 2.0 0.06 0.07 0.07 88 1021.4
20260902105018 64 220 0.0 2.0 0.07 0.07 0.07 90 1021.5
20260902104031 65 265 0.0 0.0 0.07 0.07 0.07 89 1021.6
20260902103023 65 224 0.0 5.0 0.06 0.06 0.06 89 1021.8
20260902102019 66 256 0.0 2.0 0.06 0.06 0.06 86 1021.8
20260902101030 67 183 0.0 2.0 0.01 0.01 0.01 84 1021.9
20260902100025 67 20 0.0 0.0 0.01 0.01 0.01 83 1021.8
20260902095019 67 270 0.0 5.0 0.00 0.00 0.00 81 1021.7
20260902094015 67 145 0.0 5.0 0.00 0.00 0.00 80 1021.8
20260902093026 67 164 0.0 2.0 0.00 0.00 0.00 78 1021.8
20260902092020 67 336 0.0 5.0 0.00 0.00 0.00 78 1021.9
20260902091029 67 212 0.0 2.0 0.00 0.00 0.00 79 1022.0
20260902090105 67 125 0.0 2.0 0.00 0.00 0.00 78 1021.9
20260902085017 67 189 0.0 2.0 0.00 0.00 0.00 78 1021.8
20260902084030 67 202 0.0 2.0 0.00 0.00 0.00 77 1021.8
20260902083041 66 3 0.0 5.0 0.00 0.00 0.00 77 1021.8
20260902082015 66 109 0.0 5.0 0.00 0.00 0.00 78 1021.6
20260902081047 65 201 0.0 5.0 0.00 0.00 0.00 78 1021.6
20260902080039 65 306 0.0 0.0 0.00 0.00 0.00 80 1021.4
20260902075015 64 195 0.0 0.0 0.00 0.00 0.00 81 1021.6
20260902074025 64 201 0.0 0.0 0.00 0.00 0.00 82 1021.4
20260902073031 63 319 0.0 0.0 0.00 0.00 0.00 83 1021.4
20260902072026 63 276 0.0 0.0 0.00 0.00 0.00 84 1021.4
20260902071019 62 241 0.0 0.0 0.00 0.00 0.00 85 1021.4
20260902070029 61 341 0.0 0.0 0.00 0.00 0.00 86 1021.4
20260902065026 61 336 0.0 0.0 0.00 0.00 0.00 86 1021.3
20260902064019 60 343 0.0 0.0 0.00 0.00 0.00 87 1021.3
20260902063015 60 328 0.0 0.0 0.00 0.00 0.00 87 1021.2
20260902062025 59 326 0.0 0.0 0.00 0.00 0.00 88 1021.1
20260902061019 59 338 0.0 0.0 0.00 0.00 0.00 89 1021.2
20260902060025 59 342 0.0 0.0 0.00 0.00 0.00 89 1021.2
20260902055020 59 347 0.0 0.0 0.00 0.00 0.00 89 1021.2
20260902054030 59 347 0.0 0.0 0.00 0.00 0.00 89 1021.1
20260902053026 59 348 0.0 0.0 0.00 0.00 0.00 89 1021.2
20260902052019 59 348 0.0 0.0 0.00 0.00 0.00 89 1021.0
20260902051518 59 349 0.0 0.0 0.00 0.00 0.00 89 1021.1
20260902051031 59 348 0.0 0.0 0.00 0.00 0.00 89 1021.0
20260902050021 59 350 0.0 0.0 0.00 0.00 0.00 88 1021.0
20260902045016 59 349 0.0 0.0 0.00 0.00 0.00 88 1021.2
20260902044030 59 349 0.0 0.0 0.00 0.00 0.00 88 1021.2
20260902043016 59 349 0.0 0.0 0.00 0.00 0.00 88 1021.1
20260902042026 59 348 0.0 0.0 0.00 0.00 0.00 87 1021.3
20260902041038 59 348 0.0 0.0 0.00 0.00 0.00 87 1021.3
20260902040031 59 348 0.0 0.0 0.00 0.00 0.00 87 1021.0
20260902035026 60 350 0.0 0.0 0.00 0.00 0.00 87 1021.2
20260902034018 60 351 0.0 0.0 0.00 0.00 0.00 86 1021.3
20260902033030 60 1 0.0 0.0 0.00 0.00 0.00 86 1021.3
20260902032026 60 3 0.0 0.0 0.00 0.00 0.00 86 1021.2
20260902031019 60 344 0.0 0.0 0.00 0.00 0.00 86 1021.3
20260902030030 60 357 0.0 0.0 0.00 0.00 0.00 85 1021.3
20260902025046 60 355 0.0 0.0 0.00 0.00 0.00 85 1021.3
20260902024016 60 344 0.0 0.0 0.00 0.00 0.00 84 1021.3
20260902023027 60 2 0.0 0.0 0.00 0.00 0.00 84 1021.2
20260902022019 60 7 0.0 0.0 0.00 0.00 0.00 84 1021.2
20260902021030 60 355 0.0 0.0 0.00 0.00 0.00 84 1021.4
20260902020047 60 2 0.0 0.0 0.00 0.00 0.00 84 1021.3
20260902015019 60 27 0.0 0.0 0.00 0.00 0.00 84 1021.5
20260902014051 60 36 0.0 0.0 0.00 0.00 0.00 83 1021.6
20260902013026 60 50 0.0 0.0 0.00 0.00 0.00 83 1021.7
20260902012018 60 58 0.0 0.0 0.00 0.00 0.00 82 1021.8
20260902011110 60 83 0.0 0.0 0.00 0.00 0.00 82 1021.8
20260902010026 61 79 0.0 0.0 0.00 0.00 0.00 82 1021.9
20260902005019 61 37 0.0 0.0 0.00 0.00 0.00 81 1021.9
20260902004026 61 98 0.0 0.0 0.00 0.00 0.00 81 1021.9
20260902003159 61 132 0.0 0.0 0.00 0.00 0.00 81 1021.9
20260902002030 61 126 0.0 0.0 0.00 0.00 0.00 81 1021.8
20260902001027 61 139 0.0 0.0 0.00 0.00 0.00 81 1021.9
20260902000018 61 181 0.0 0.0 0.00 0.00 0.00 81 1021.8
20260901235029 61 98 0.0 0.0 0.00 0.00 0.00 81 1021.9
20260901234026 61 112 0.0 0.0 0.00 0.00 0.00 81 1022.0
20260901233017 61 56 0.0 0.0 0.00 0.00 0.00 81 1022.1
20260901232030 61 43 0.0 0.0 0.00 0.00 0.00 80 1022.1
20260901231026 61 55 0.0 0.0 0.00 0.00 0.00 80 1021.9
20260901230018 61 81 0.0 0.0 0.00 0.00 0.00 79 1021.8
20260901225030 62 115 0.0 0.0 0.00 0.00 0.00 78 1022.0
20260901224026 62 326 0.0 0.0 0.00 0.00 0.00 78 1022.0
20260901223018 62 85 0.0 0.0 0.00 0.00 0.00 78 1022.1
20260901222031 62 63 0.0 0.0 0.00 0.00 0.00 78 1022.2
20260901221025 62 47 0.0 0.0 0.00 0.00 0.00 77 1022.1
20260901220039 62 51 0.0 0.0 0.00 0.00 0.00 77 1022.2
20260901215030 62 40 0.0 0.0 0.00 0.00 0.00 77 1022.0
20260901214026 62 101 0.0 0.0 0.00 0.00 0.00 76 1022.1
20260901213039 62 242 0.0 0.0 0.00 0.00 0.00 76 1022.1
20260901212030 62 71 0.0 0.0 0.00 0.00 0.00 76 1022.2
20260901211028 63 66 0.0 0.0 0.00 0.00 0.00 75 1022.1
20260901210019 63 78 0.0 0.0 0.00 0.00 0.00 74 1022.1
20260901205030 64 43 0.0 0.0 0.00 0.00 0.00 74 1022.0
20260901204025 64 93 0.0 0.0 0.00 0.00 0.00 73 1022.1
20260901203052 64 61 0.0 0.0 0.00 0.00 0.00 72 1022.0
20260901202046 65 266 0.0 2.0 0.00 0.00 0.00 71 1022.0
20260901201027 65 330 0.0 2.0 0.00 0.00 0.00 71 1021.9
20260901200018 65 37 0.0 2.0 0.00 0.00 0.00 70 1021.8
20260901195030 66 287 0.0 5.0 0.00 0.00 0.00 69 1021.8
20260901194025 66 346 0.0 2.0 0.00 0.00 0.00 68 1021.6
20260901193019 67 167 0.0 5.0 0.00 0.00 0.00 67 1021.6
20260901192031 67 279 0.0 5.0 0.00 0.00 0.00 67 1021.7
20260901191026 67 195 0.0 2.0 0.00 0.00 0.00 67 1021.6
20260901190018 67 280 0.0 5.0 0.00 0.00 0.00 67 1021.6
20260901185051 67 213 0.0 2.0 0.00 0.00 0.00 67 1021.4
20260901184025 68 240 0.0 2.0 0.00 0.00 0.00 66 1021.3
20260901183018 68 156 0.0 5.0 0.00 0.00 0.00 65 1021.3
20260901182028 69 78 0.0 5.0 0.00 0.00 0.00 64 1021.5
20260901181018 70 249 1.0 5.0 0.00 0.00 0.00 63 1021.4
20260901175531 71 201 1.0 7.0 0.00 0.00 0.00 61 1021.3
20260901174525 71 219 1.0 5.0 0.00 0.00 0.00 59 1021.2
20260901173516 72 200 0.0 5.0 0.00 0.00 0.00 57 1021.2
20260901172525 72 173 0.0 2.0 0.00 0.00 0.00 56 1021.3
20260901171526 73 234 0.0 2.0 0.00 0.00 0.00 52 1021.1
20260901170538 74 102 0.0 2.0 0.00 0.00 0.00 50 1021.2
20260901165526 75 46 0.0 5.0 0.00 0.00 0.00 47 1021.1
20260901164518 75 332 1.0 7.0 0.00 0.00 0.00 45 1021.0
20260901163526 75 323 1.0 7.0 0.00 0.00 0.00 41 1021.0